Presque Isle, ME

7:37 PM EST on January 21, 2017 (GMT -0500)
Northern Maine Regional At Presque Isle

Weather History for KPQI - January, 2013

Change the Weather History Date:

Tuesday, January 8, 2013

  Actual Average Record
Temperature  
Mean Temperature 10 °F -  
Max Temperature 32 °F 20 °F 51 °F (2008)
Min Temperature -11 °F 4 °F -23 °F (1942)
Degree Days  
Heating Degree Days 54    
Moisture  
Dew Point 6 °F    
Average Humidity 62    
Maximum Humidity 92    
Minimum Humidity 21    
Precipitation  
Precipitation 0.00 in - - ()
Sea Level Pressure  
Sea Level Pressure 30.07 in    
Wind  
Wind Speed 5 mph (SSW)    
Max Wind Speed 13 mph    
Max Gust Speed 22 mph    
Visibility 10 miles    
Events      
Averages and records for this station are not official NWS values.
T = Trace of Precipitation, MM = Missing Value Source: NWS Daily Summary

Daily Weather History Graph

Daily Weather History Graph

Search for Another Location

Airport or City:

Trip Planner

Search our weather history database for the weather conditions in past years. The results will help you decide how hot, cold, wet, or windy it might be!

Date:

Astronomy

Jan. 08, 2013 Rise Set
Actual Time 7:15 AM EST 4:02 PM EST
Civil Twilight 6:41 AM EST 4:37 PM EST
Nautical Twilight 6:03 AM EST 5:15 PM EST
Astronomical Twilight 5:26 AM EST 5:51 PM EST
Moon 3:43 AM EST (1/8) 1:02 PM EST (1/8)
Length of Visible Light 9h 56m
Length of Day
8h 47m
Waning Crescent, 14% of the Moon is Illuminated
Jan 8
Waning Crescent
Jan 11
New
Jan 18
First Quarter
Jan 26
Full
Feb 3
Last Quarter

Hourly Weather History & Observations

Time (EST) Temp. Windchill Dew Point Humidity Pressure Visibility Wind Dir Wind Speed Gust Speed Precip Events Conditions
12:15 AM -11.2 °F -24.8 °F - N/A% - 10.0 mi SSE 5.8 mph - N/A   Clear
12:35 AM -7.6 °F -18.8 °F - N/A% 30.15 in 10.0 mi South 4.6 mph - N/A   Clear
12:55 AM -7.6 °F -16.5 °F - N/A% - 10.0 mi ESE 3.5 mph - N/A   Clear
1:15 AM -2.2 °F -14.2 °F -25.6 °F 32% 30.14 in 10.0 mi SSE 5.8 mph - N/A   Clear
1:35 AM -2.2 °F -14.2 °F -20.2 °F 42% 30.12 in 10.0 mi SSE 5.8 mph - N/A   Clear
1:55 AM -2.2 °F - -18.4 °F 46% 30.11 in 10.0 mi Calm Calm - N/A   Clear
2:15 AM -2.2 °F -12.5 °F -16.6 °F 50% 30.10 in 10.0 mi SE 4.6 mph - N/A   Clear
2:35 AM -2.2 °F -10.4 °F -16.6 °F 50% 30.10 in 10.0 mi SE 3.5 mph - N/A   Clear
2:55 AM -2.2 °F - -13.0 °F 60% 30.08 in 10.0 mi Calm Calm - N/A   Clear
3:15 AM -2.2 °F - -13.0 °F 60% 30.07 in 10.0 mi Calm Calm - N/A   Clear
3:35 AM -2.2 °F - -14.8 °F 55% 30.07 in 10.0 mi Calm Calm - N/A   Clear
3:55 AM -2.2 °F - -11.2 °F 66% 30.07 in 10.0 mi Calm Calm - N/A   Mostly Cloudy
4:15 AM -2.2 °F - -9.4 °F 71% 30.08 in 10.0 mi Calm Calm - N/A   Overcast
4:35 AM -2.2 °F -12.5 °F -13.0 °F 60% 30.06 in 10.0 mi SSE 4.6 mph - N/A   Overcast
4:55 AM -0.4 °F -16.7 °F -9.4 °F 66% 30.04 in 10.0 mi SSE 10.4 mph - N/A   Overcast
5:15 AM 1.4 °F -13.5 °F -5.8 °F 72% 30.03 in 10.0 mi SSE 9.2 mph - N/A   Overcast
5:35 AM 1.4 °F -6.2 °F -2.2 °F 85% 30.02 in 10.0 mi SSE 3.5 mph - N/A   Overcast
5:55 AM 1.4 °F -9.9 °F - N/A% 30.02 in 10.0 mi SSE 5.8 mph - N/A   Overcast
6:15 AM 3.2 °F -7.8 °F -29.2 °F 21% 30.01 in 10.0 mi SSE 5.8 mph - N/A   Overcast
6:35 AM 3.2 °F -10.3 °F -23.8 °F 28% 30.02 in 10.0 mi SSE 8.1 mph - N/A   Overcast
6:55 AM 5.0 °F -6.9 °F -14.8 °F 40% 30.02 in 10.0 mi SE 6.9 mph - N/A   Overcast
7:15 AM 5.0 °F - -9.4 °F 52% 30.03 in 10.0 mi Calm Calm - N/A   Overcast
7:35 AM 5.0 °F -6.9 °F -7.6 °F 56% 30.03 in 10.0 mi SE 6.9 mph - N/A   Overcast
7:55 AM 6.8 °F -2.0 °F -2.2 °F 67% 30.03 in 10.0 mi SSE 4.6 mph - N/A   Overcast
8:15 AM 6.8 °F -4.8 °F 5.0 °F 92% 30.03 in 10.0 mi SSE 6.9 mph - N/A   Overcast
8:35 AM 6.8 °F -3.5 °F -23.8 °F 23% 30.02 in 10.0 mi South 5.8 mph - N/A   Overcast
8:55 AM 6.8 °F -0.1 °F - N/A% 30.01 in 10.0 mi South 3.5 mph - N/A   Overcast
9:15 AM 8.6 °F - -9.4 °F 44% 30.02 in 10.0 mi Calm Calm - N/A   Overcast
9:35 AM 10.4 °F - -4.0 °F 52% 30.02 in 10.0 mi Calm Calm - N/A   Overcast
9:55 AM 10.4 °F 4.0 °F -20.2 °F 24% 30.02 in 10.0 mi SSE 3.5 mph - N/A   Overcast
10:15 AM 14.0 °F 8.2 °F 6.8 °F 73% 30.02 in 10.0 mi South 3.5 mph - N/A   Overcast
10:35 AM 19.4 °F 12.8 °F 12.2 °F 74% 30.01 in 10.0 mi SSW 4.6 mph - N/A   Overcast
10:55 AM 24.8 °F 15.3 °F 14.0 °F 64% 30.01 in 10.0 mi South 9.2 mph - N/A   Overcast
11:15 AM 24.8 °F 14.6 °F 14.0 °F 64% 30.01 in 10.0 mi South 10.4 mph - N/A   Overcast
11:35 AM 26.6 °F 19.1 °F 15.8 °F 64% - 10.0 mi South 6.9 mph - N/A   Overcast
11:55 AM 26.6 °F 18.2 °F 17.6 °F 69% - 10.0 mi South 8.1 mph - N/A   Overcast
12:15 PM 28.4 °F 19.1 °F 17.6 °F 64% 30.00 in 10.0 mi South 10.4 mph - N/A   Overcast
12:35 PM 28.4 °F 18.0 °F 19.4 °F 69% 29.98 in 10.0 mi South 12.7 mph 17.3 mph N/A   Overcast
12:55 PM 30.2 °F 21.3 °F 19.4 °F 64% - 10.0 mi SSW 10.4 mph 17.3 mph N/A   Scattered Clouds
1:15 PM 30.2 °F 22.6 °F 19.4 °F 64% 30.00 in 10.0 mi SSW 8.1 mph 16.1 mph N/A   Scattered Clouds
1:35 PM 30.2 °F 20.8 °F 19.4 °F 64% 30.00 in 10.0 mi SW 11.5 mph 21.9 mph N/A   Overcast
1:55 PM 30.2 °F 21.9 °F 19.4 °F 64% 30.02 in 10.0 mi SSW 9.2 mph - N/A   Overcast
2:15 PM 30.2 °F 22.6 °F 19.4 °F 64% 30.02 in 10.0 mi SSW 8.1 mph - N/A   Overcast
2:35 PM 30.2 °F 22.6 °F 21.2 °F 69% 30.02 in 10.0 mi South 8.1 mph - N/A   Overcast
5:35 PM 32.0 °F 23.6 °F 21.2 °F 64% 30.08 in 10.0 mi WSW 10.4 mph - N/A   Overcast
5:55 PM 32.0 °F 22.5 °F 21.2 °F 64% 30.09 in 10.0 mi WSW 12.7 mph - N/A   Overcast
6:15 PM 32.0 °F 24.8 °F 23.0 °F 69% 30.09 in 10.0 mi WSW 8.1 mph - N/A   Overcast
6:35 PM 32.0 °F 22.5 °F 21.2 °F 64% 30.10 in 10.0 mi WSW 12.7 mph 16.1 mph N/A   Scattered Clouds
6:55 PM 30.2 °F 22.6 °F 21.2 °F 69% 30.11 in 10.0 mi WSW 8.1 mph - N/A   Clear
7:15 PM 30.2 °F 23.4 °F 21.2 °F 69% 30.12 in 10.0 mi West 6.9 mph - N/A   Clear
7:35 PM 30.2 °F 23.4 °F 21.2 °F 69% 30.12 in 10.0 mi West 6.9 mph - N/A   Clear
7:55 PM 30.2 °F - 23.0 °F 75% 30.14 in 10.0 mi Calm Calm - N/A   Mostly Cloudy
8:15 PM 30.2 °F 24.3 °F 21.2 °F 69% 30.14 in 10.0 mi WSW 5.8 mph - N/A   Mostly Cloudy
8:35 PM 30.2 °F 22.6 °F 21.2 °F 69% 30.14 in 10.0 mi WSW 8.1 mph - N/A   Partly Cloudy
8:55 PM 30.2 °F 21.3 °F 23.0 °F 75% 30.14 in 10.0 mi WSW 10.4 mph 16.1 mph N/A   Clear
9:15 PM 28.4 °F 21.2 °F 21.2 °F 74% 30.14 in 10.0 mi SW 6.9 mph - N/A   Clear
9:35 PM 28.4 °F 23.3 °F 21.2 °F 74% 30.14 in 10.0 mi SW 4.6 mph - N/A   Clear
9:55 PM 28.4 °F 21.2 °F 21.2 °F 74% 30.16 in 10.0 mi SW 6.9 mph - N/A   Clear
10:15 PM 28.4 °F 21.2 °F 21.2 °F 74% 30.16 in 10.0 mi WSW 6.9 mph - N/A   Clear
10:35 PM 28.4 °F 22.2 °F 21.2 °F 74% 30.17 in 10.0 mi SW 5.8 mph - N/A   Clear
10:55 PM 28.4 °F 21.2 °F 21.2 °F 74% 30.17 in 10.0 mi WSW 6.9 mph - N/A   Clear
11:15 PM 28.4 °F 23.3 °F 21.2 °F 74% 30.18 in 10.0 mi SW 4.6 mph - N/A   Clear
11:35 PM 26.6 °F 21.2 °F 21.2 °F 80% 30.18 in 10.0 mi WSW 4.6 mph - N/A   Partly Cloudy
11:55 PM 24.8 °F - 19.4 °F 80% 30.18 in 10.0 mi Calm Calm - N/A   Clear